Birmingham, AL

11:29 AM CST on February 10, 2016 (GMT -0600)
Birmingham International

Weather History for KBHM - March, 2013

Change the Weather History Date:

Sunday, March 17, 2013

  Actual Average Record
Temperature  
Mean Temperature 64 °F 56 °F  
Max Temperature 71 °F 67 °F 86 °F (1963)
Min Temperature 56 °F 44 °F 28 °F (1952)
Degree Days  
Heating Degree Days 1 10  
Month to date heating degree days 265 203  
Since 1 July heating degree days 2263 2393  
Cooling Degree Days 0 1  
Month to date cooling degree days 1 7  
Year to date cooling degree days 7 11  
Growing Degree Days 12 (Base 50)    
Moisture  
Dew Point 52 °F    
Average Humidity 67    
Maximum Humidity 86    
Minimum Humidity 47    
Precipitation  
Precipitation 0.00 in 0.17 in 3.42 in (1920)
Month to date precipitation 1.23 2.91  
Year to date precipitation 15.82 12.28  
Snow  
Snow 0.00 in 0.10 in - ()
Month to date snowfall T 0.4  
Since 1 July snowfall 2.1 1.2  
Snow Depth 0.00 in    
Sea Level Pressure  
Sea Level Pressure 29.95 in    
Wind  
Wind Speed 9 mph (SSW)    
Max Wind Speed 17 mph    
Max Gust Speed 23 mph    
Visibility 10 miles    
Events      
T = Trace of Precipitation, MM = Missing Value Source: NWS Daily Summary

Daily Weather History Graph

Daily Weather History Graph

Search for Another Location

Airport or City:

Trip Planner

Search our weather history database for the weather conditions in past years. The results will help you decide how hot, cold, wet, or windy it might be!

Date:

Astronomy

Mar. 17, 2013 Rise Set
Actual Time 6:54 AM CDT 6:56 PM CDT
Civil Twilight 6:29 AM CDT 7:21 PM CDT
Nautical Twilight 6:00 AM CDT 7:50 PM CDT
Astronomical Twilight 5:31 AM CDT 8:19 PM CDT
Moon 10:22 AM CDT (3/17) No Moon Set
Length of Visible Light 12h 51m
Length of Day
12h 02m
Waxing Crescent, 31% of the Moon is Illuminated
Mar 17
Waxing Crescent
Mar 19
First Quarter
Mar 27
Full
Apr 2
Last Quarter
Apr 10
New

Hourly Weather History & Observations

Time (CDT) Temp. Dew Point Humidity Pressure Visibility Wind Dir Wind Speed Gust Speed Precip Events Conditions
12:53 AM 62.1 °F 48.9 °F 62% 29.98 in 10.0 mi SSW 11.5 mph - N/A   Clear
1:53 AM 60.1 °F 50.0 °F 69% 29.98 in 10.0 mi SSW 9.2 mph - N/A   Clear
2:53 AM 60.1 °F 51.1 °F 72% 29.98 in 10.0 mi SW 11.5 mph - N/A   Clear
3:53 AM 59.0 °F 52.0 °F 78% 29.96 in 10.0 mi SSW 8.1 mph - N/A   Clear
4:53 AM 57.0 °F 52.0 °F 83% 29.96 in 10.0 mi SSW 8.1 mph - N/A   Clear
5:53 AM 57.0 °F 52.0 °F 83% 29.99 in 10.0 mi SSW 8.1 mph - N/A   Clear
6:53 AM 55.9 °F 52.0 °F 87% 30.00 in 10.0 mi SSW 8.1 mph - N/A   Clear
7:53 AM 57.0 °F 53.1 °F 87% 30.01 in 10.0 mi SW 6.9 mph - N/A   Clear
8:53 AM 59.0 °F 53.1 °F 81% 30.02 in 10.0 mi SSW 9.2 mph - N/A   Clear
9:53 AM 61.0 °F 54.0 °F 78% 30.03 in 10.0 mi SW 8.1 mph - N/A   Clear
10:53 AM 64.0 °F 53.1 °F 67% 30.01 in 10.0 mi WSW 5.8 mph - N/A   Partly Cloudy
11:53 AM 66.0 °F 52.0 °F 60% 30.00 in 10.0 mi SSW 9.2 mph - N/A   Partly Cloudy
12:53 PM 66.9 °F 51.1 °F 57% 29.99 in 10.0 mi SSW 11.5 mph - N/A   Mostly Cloudy
1:53 PM 68.0 °F 48.9 °F 50% 29.95 in 10.0 mi SSW 10.4 mph - N/A   Scattered Clouds
2:53 PM 69.1 °F 50.0 °F 51% 29.93 in 10.0 mi SW 9.2 mph - N/A   Scattered Clouds
3:53 PM 70.0 °F 48.9 °F 47% 29.91 in 10.0 mi SW 11.5 mph - N/A   Partly Cloudy
4:53 PM 70.0 °F 48.9 °F 47% 29.90 in 10.0 mi SSW 12.7 mph 18.4 mph N/A   Partly Cloudy
5:53 PM 69.1 °F 50.0 °F 51% 29.89 in 10.0 mi South 9.2 mph - N/A   Partly Cloudy
6:53 PM 66.9 °F 51.1 °F 57% 29.89 in 10.0 mi South 8.1 mph - N/A   Clear
7:53 PM 64.9 °F 51.1 °F 61% 29.89 in 10.0 mi SE 5.8 mph - N/A   Clear
8:53 PM 64.9 °F 54.0 °F 68% 29.90 in 10.0 mi SSE 9.2 mph - N/A   Scattered Clouds
9:53 PM 64.9 °F 55.0 °F 70% 29.91 in 10.0 mi SSE 5.8 mph - N/A   Overcast
10:53 PM 64.0 °F 55.0 °F 73% 29.90 in 10.0 mi SSE 9.2 mph - N/A   Overcast
11:53 PM 63.0 °F 57.0 °F 81% 29.90 in 10.0 mi South 9.2 mph 18.4 mph N/A   Scattered Clouds